DLH11A LEBB-EDDM

Flight info

Callsign DLH11A
Flight time N/A
Altitude 33000
Route SSN N10 PPN DCT LATEK DCT GONUP DCT TOU DCT GAI DCT MEN DCT NINUN DCT LATAM DCT ETREK DCT LTP DCT SOPLO DCT OMASI DCT KINNI DCT SOSAL DCT KORED DCT BERSU DCT DITON DCT NUNRI T103 BETOS BETOS1B
Aircraft A321/M-SDE3FGHIRWY/LB1

Departure

Time 2026-05-05 23:09
Airport Bilbao Airport (LEBB)

Arrival

Time N/A
Airport Munich Airport (EDDM)
Time Latitude Longitude Altitude Speed Heading
2026-05-05 22:37 43.30404 -2.90579 126 ft 0 kts 26°
2026-05-05 22:56 43.30398 -2.90583 152 ft 4 kts 25°
2026-05-05 22:56 43.30373 -2.90596 124 ft 4 kts 15°
2026-05-05 22:57 43.30347 -2.90603 123 ft 4 kts 359°
2026-05-05 22:57 43.30323 -2.90596 122 ft 2 kts 327°
2026-05-05 22:57 43.30321 -2.90595 122 ft 0 kts 326°
2026-05-05 23:00 43.30336 -2.90612 126 ft 6 kts 315°
2026-05-05 23:00 43.30364 -2.90682 124 ft 11 kts 296°
2026-05-05 23:00 43.30405 -2.90798 127 ft 13 kts 287°
2026-05-05 23:01 43.30403 -2.90938 127 ft 8 kts 267°
2026-05-05 23:01 43.30380 -2.90985 125 ft 1 kts 201°
2026-05-05 23:01 43.30379 -2.90985 125 ft 2 kts 202°
2026-05-05 23:02 43.30353 -2.91004 125 ft 6 kts 207°
2026-05-05 23:02 43.30307 -2.91045 124 ft 8 kts 237°
2026-05-05 23:02 43.30311 -2.91094 124 ft 7 kts 296°
2026-05-05 23:03 43.30317 -2.91110 127 ft 7 kts 295°
2026-05-05 23:03 43.30339 -2.91177 123 ft 9 kts 295°
2026-05-05 23:03 43.30378 -2.91281 125 ft 15 kts 298°
2026-05-05 23:03 43.30432 -2.91432 127 ft 20 kts 296°
2026-05-05 23:04 43.30500 -2.91618 126 ft 18 kts 298°
2026-05-05 23:04 43.30558 -2.91770 127 ft 11 kts 294°
2026-05-05 23:04 43.30582 -2.91840 125 ft 14 kts 296°
2026-05-05 23:05 43.30616 -2.91931 127 ft 8 kts 297°
2026-05-05 23:05 43.30651 -2.92024 127 ft 14 kts 297°
2026-05-05 23:05 43.30701 -2.92163 125 ft 19 kts 295°
2026-05-05 23:06 43.30745 -2.92280 123 ft 14 kts 297°
2026-05-05 23:06 43.30782 -2.92383 125 ft 10 kts 295°
2026-05-05 23:06 43.30783 -2.92386 125 ft 10 kts 295°
2026-05-05 23:07 43.30798 -2.92429 128 ft 13 kts 295°
2026-05-05 23:07 43.30762 -2.92507 127 ft 13 kts 189°
2026-05-05 23:07 43.30715 -2.92488 124 ft 6 kts 161°
2026-05-05 23:07 43.30652 -2.92456 126 ft 13 kts 155°
2026-05-05 23:08 43.30593 -2.92374 125 ft 0 kts 117°
2026-05-05 23:08 43.30584 -2.92350 125 ft 20 kts 117°
2026-05-05 23:08 43.30403 -2.91857 125 ft 93 kts 116°
2026-05-05 23:08 43.30014 -2.90793 125 ft 153 kts 116°
2026-05-05 23:09 43.29517 -2.89465 769 ft 147 kts 117°
2026-05-05 23:09 43.29070 -2.88232 1477 ft 148 kts 116°
2026-05-05 23:09 43.28585 -2.86884 1819 ft 168 kts 117°
2026-05-05 23:09 43.28026 -2.85364 2079 ft 189 kts 117°
2026-05-05 23:10 43.27394 -2.83661 2302 ft 211 kts 117°
2026-05-05 23:10 43.26702 -2.81793 2624 ft 225 kts 117°
2026-05-05 23:10 43.25989 -2.79857 3142 ft 230 kts 117°
2026-05-05 23:10 43.25257 -2.77870 3656 ft 235 kts 117°
2026-05-05 23:11 43.24631 -2.75794 4188 ft 238 kts 98°
2026-05-05 23:11 43.24802 -2.73574 4705 ft 235 kts 63°
2026-05-05 23:11 43.25757 -2.71811 5275 ft 229 kts 37°
2026-05-05 23:11 43.26945 -2.70360 5866 ft 229 kts 37°
2026-05-05 23:12 43.28136 -2.68906 6485 ft 229 kts 37°
2026-05-05 23:12 43.29329 -2.67443 7052 ft 231 kts 39°
2026-05-05 23:12 43.30329 -2.65671 7574 ft 240 kts 58°
2026-05-05 23:12 43.30873 -2.63424 7833 ft 261 kts 79°
2026-05-05 23:13 43.30919 -2.60827 8001 ft 283 kts 88°
2026-05-05 23:13 43.30916 -2.58075 8440 ft 293 kts 88°
2026-05-05 23:13 43.30918 -2.55259 9066 ft 296 kts 88°
2026-05-05 23:13 43.30923 -2.52421 9695 ft 299 kts 88°
2026-05-05 23:14 43.30931 -2.49553 10229 ft 306 kts 88°
2026-05-05 23:14 43.30942 -2.46574 10360 ft 326 kts 88°
2026-05-05 23:14 43.30957 -2.43368 10486 ft 346 kts 88°
2026-05-05 23:14 43.30970 -2.39972 10614 ft 364 kts 88°
2026-05-05 23:15 43.30708 -2.36446 10766 ft 380 kts 104°
2026-05-05 23:15 43.29888 -2.32964 11206 ft 386 kts 108°
2026-05-05 23:15 43.29031 -2.29449 11751 ft 390 kts 108°
2026-05-05 23:15 43.28163 -2.25912 12274 ft 393 kts 108°
2026-05-05 23:16 43.27285 -2.22344 12812 ft 396 kts 108°
2026-05-05 23:16 43.26400 -2.18747 13343 ft 399 kts 108°
2026-05-05 23:16 43.25509 -2.15123 13874 ft 403 kts 108°
2026-05-05 23:16 43.24611 -2.11466 14354 ft 406 kts 108°
2026-05-05 23:17 43.23706 -2.07790 14856 ft 408 kts 108°
2026-05-05 23:17 43.22793 -2.04095 15336 ft 410 kts 108°
2026-05-05 23:17 43.21875 -2.00386 15804 ft 413 kts 108°
2026-05-05 23:17 43.20946 -1.96644 16255 ft 415 kts 108°
2026-05-05 23:18 43.20013 -1.92883 16693 ft 419 kts 108°
2026-05-05 23:18 43.19071 -1.89090 17134 ft 422 kts 109°
2026-05-05 23:18 43.18119 -1.85276 17569 ft 425 kts 109°
2026-05-05 23:18 43.17155 -1.81435 17996 ft 428 kts 109°
2026-05-05 23:19 43.16184 -1.77571 18419 ft 431 kts 109°
2026-05-05 23:19 43.15208 -1.73678 18798 ft 433 kts 109°
2026-05-05 23:19 43.14229 -1.69766 19184 ft 435 kts 109°
2026-05-05 23:19 43.13242 -1.65832 19562 ft 438 kts 109°
2026-05-05 23:20 43.12250 -1.61881 19969 ft 440 kts 109°
2026-05-05 23:20 43.11254 -1.57917 20379 ft 442 kts 109°
2026-05-05 23:20 43.10246 -1.53931 20767 ft 445 kts 109°
2026-05-05 23:20 43.09228 -1.49925 21155 ft 447 kts 109°
2026-05-05 23:21 43.08203 -1.45893 21539 ft 449 kts 109°
2026-05-05 23:21 43.07171 -1.41842 21918 ft 452 kts 109°
2026-05-05 23:21 43.06137 -1.37778 22282 ft 454 kts 109°
2026-05-05 23:21 43.05096 -1.33687 22637 ft 457 kts 109°
2026-05-05 23:22 43.04061 -1.29629 23003 ft 459 kts 109°
2026-05-05 23:22 43.03006 -1.25499 23358 ft 461 kts 109°
2026-05-05 23:22 43.01930 -1.21292 23685 ft 464 kts 109°
2026-05-05 23:22 43.00874 -1.17180 23965 ft 466 kts 110°
2026-05-05 23:23 42.99792 -1.12988 24253 ft 469 kts 110°
2026-05-05 23:23 42.98705 -1.08778 24504 ft 472 kts 110°
2026-05-05 23:23 42.97609 -1.04543 24766 ft 475 kts 110°
2026-05-05 23:23 42.96504 -1.00275 25029 ft 478 kts 110°
2026-05-05 23:24 42.95395 -0.95994 25284 ft 480 kts 110°
2026-05-05 23:24 42.94280 -0.91684 25538 ft 483 kts 110°
2026-05-05 23:24 42.93157 -0.87343 25768 ft 485 kts 110°
2026-05-05 23:24 42.92030 -0.82998 25992 ft 488 kts 111°
2026-05-05 23:25 42.90890 -0.78624 26220 ft 490 kts 111°
2026-05-05 23:25 42.89967 -0.74134 26446 ft 494 kts 102°
2026-05-05 23:25 42.89573 -0.69462 26615 ft 498 kts 91°
2026-05-05 23:25 42.89758 -0.64742 26801 ft 500 kts 81°
2026-05-05 23:26 42.90509 -0.60114 26973 ft 502 kts 71°
2026-05-05 23:26 42.91795 -0.55696 27186 ft 501 kts 61°
2026-05-05 23:26 42.93493 -0.51557 27431 ft 501 kts 58°
2026-05-05 23:26 42.95241 -0.47422 27663 ft 502 kts 58°
2026-05-05 23:27 42.96979 -0.43290 27882 ft 502 kts 58°
2026-05-05 23:27 42.98712 -0.39152 28103 ft 503 kts 58°
2026-05-05 23:27 43.00427 -0.35057 28346 ft 504 kts 58°
2026-05-05 23:27 43.02167 -0.30901 28608 ft 504 kts 58°
2026-05-05 23:28 43.03903 -0.26747 28958 ft 502 kts 58°
2026-05-05 23:28 43.05661 -0.22549 29275 ft 502 kts 58°
2026-05-05 23:28 43.07371 -0.18463 29527 ft 502 kts 58°
2026-05-05 23:28 43.09104 -0.14314 29735 ft 503 kts 58°
2026-05-05 23:29 43.10837 -0.10149 29991 ft 504 kts 58°